Wetterdaten: Donnerstag, 05.02.2015
Datum Zeit Auen-Temp. Temp. -10 cm Luftfeuchte Luftfeuchte Luftdruck Regen Wind Richtung Richtung Taupunkt Windchill Windben
05.02.2015 00:00 -5,7 C 1,6 C 81 % 81 % 1012,6 hPa 0,0 l/m 2,9 km/h (1 Bft) NO 45 -8,4 C -7,2 C 2,3 km/h (1 Bft)
05.02.2015 00:05 -5,7 C 1,6 C 81 % 81 % 1012,4 hPa 0,0 l/m 2,6 km/h (1 Bft) O-NO 67 -8,4 C -6,9 C 0,0 km/h (0 Bft)
05.02.2015 00:10 -5,7 C 1,6 C 81 % 81 % 1012,4 hPa 0,0 l/m 2,1 km/h (1 Bft) S-SO 157 -8,4 C -6,4 C 3,1 km/h (1 Bft)
05.02.2015 00:15 -5,8 C 1,6 C 81 % 81 % 1012,4 hPa 0,0 l/m 1,6 km/h (1 Bft) O-NO 67 -8,5 C -6,3 C 0,0 km/h (0 Bft)
05.02.2015 00:20 -5,7 C 1,6 C 81 % 81 % 1012,4 hPa 0,0 l/m 2,1 km/h (1 Bft) NO 45 -8,4 C -6,4 C 2,1 km/h (1 Bft)
05.02.2015 00:25 -5,7 C 1,6 C 82 % 82 % 1012,4 hPa 0,0 l/m 2,6 km/h (1 Bft) NO 45 -8,3 C -6,9 C 8,0 km/h (2 Bft)
05.02.2015 00:30 -5,7 C 1,6 C 82 % 82 % 1012,4 hPa 0,0 l/m 2,4 km/h (1 Bft) NO 45 -8,3 C -6,8 C 2,1 km/h (1 Bft)
05.02.2015 00:35 -5,8 C 1,6 C 82 % 82 % 1012,4 hPa 0,0 l/m 1,1 km/h (1 Bft) O-NO 67 -8,4 C -6,3 C 2,1 km/h (1 Bft)
05.02.2015 00:40 -5,8 C 1,6 C 82 % 82 % 1012,4 hPa 0,0 l/m 1,0 km/h (0 Bft) NO 45 -8,4 C -6,4 C 3,2 km/h (1 Bft)
05.02.2015 00:45 -5,8 C 1,6 C 82 % 82 % 1012,1 hPa 0,0 l/m 1,4 km/h (1 Bft) O-NO 67 -8,4 C -6,4 C 2,1 km/h (1 Bft)
05.02.2015 00:50 -5,8 C 1,6 C 82 % 82 % 1012,1 hPa 0,0 l/m 1,9 km/h (1 Bft) O 90 -8,4 C -6,4 C 2,7 km/h (1 Bft)
05.02.2015 00:55 -5,8 C 1,6 C 82 % 82 % 1012,1 hPa 0,0 l/m 1,8 km/h (1 Bft) NO 45 -8,4 C -6,4 C 1,6 km/h (1 Bft)
05.02.2015 01:00 -5,9 C 1,6 C 82 % 82 % 1012,1 hPa 0,0 l/m 1,4 km/h (1 Bft) SO 135 -8,5 C -6,4 C 1,9 km/h (1 Bft)
05.02.2015 01:05 -5,9 C 1,6 C 82 % 82 % 1012,0 hPa 0,0 l/m 1,8 km/h (1 Bft) NO 45 -8,5 C -6,4 C 2,7 km/h (1 Bft)
05.02.2015 01:10 -5,9 C 1,6 C 82 % 82 % 1012,0 hPa 0,0 l/m 2,4 km/h (1 Bft) NO 45 -8,5 C -6,9 C 3,2 km/h (1 Bft)
05.02.2015 01:15 -5,9 C 1,6 C 82 % 82 % 1012,0 hPa 0,0 l/m 2,1 km/h (1 Bft) N-NO 22 -8,5 C -6,6 C 0,0 km/h (0 Bft)
05.02.2015 01:20 -5,9 C 1,6 C 82 % 82 % 1012,0 hPa 0,0 l/m 1,6 km/h (1 Bft) S-SO 157 -8,5 C -6,5 C 1,6 km/h (1 Bft)
05.02.2015 01:25 -5,9 C 1,6 C 82 % 82 % 1011,6 hPa 0,0 l/m 2,3 km/h (1 Bft) SO 135 -8,5 C -6,8 C 2,3 km/h (1 Bft)
05.02.2015 01:30 -5,9 C 1,6 C 82 % 82 % 1011,6 hPa 0,0 l/m 2,3 km/h (1 Bft) O-NO 67 -8,5 C -6,8 C 0,0 km/h (0 Bft)
05.02.2015 01:35 -5,9 C 1,6 C 82 % 82 % 1011,6 hPa 0,0 l/m 1,0 km/h (0 Bft) O-SO 112 -8,5 C -6,5 C 0,0 km/h (0 Bft)
05.02.2015 01:40 -5,9 C 1,6 C 82 % 82 % 1011,6 hPa 0,0 l/m 1,0 km/h (0 Bft) SO 135 -8,5 C -6,5 C 0,0 km/h (0 Bft)
05.02.2015 01:45 -5,9 C 1,6 C 82 % 82 % 1011,8 hPa 0,0 l/m 1,1 km/h (1 Bft) NO 45 -8,5 C -6,5 C 1,6 km/h (1 Bft)
05.02.2015 01:50 -5,9 C 1,6 C 82 % 82 % 1011,8 hPa 0,0 l/m 1,1 km/h (1 Bft) O-NO 67 -8,5 C -6,5 C 4,0 km/h (1 Bft)
05.02.2015 01:55 -5,9 C 1,6 C 82 % 82 % 1011,8 hPa 0,0 l/m 1,4 km/h (1 Bft) NO 45 -8,5 C -6,5 C 3,2 km/h (1 Bft)
05.02.2015 02:00 -5,9 C 1,6 C 82 % 82 % 1011,8 hPa 0,0 l/m 1,9 km/h (1 Bft) N-NO 22 -8,5 C -6,5 C 3,2 km/h (1 Bft)
05.02.2015 02:05 -5,9 C 1,6 C 82 % 82 % 1011,7 hPa 0,0 l/m 1,6 km/h (1 Bft) N-NW 337 -8,5 C -6,5 C 5,0 km/h (1 Bft)
05.02.2015 02:10 -5,9 C 1,6 C 83 % 83 % 1011,7 hPa 0,0 l/m 2,1 km/h (1 Bft) NO 45 -8,3 C -6,7 C 0,0 km/h (0 Bft)
05.02.2015 02:15 -5,9 C 1,6 C 83 % 83 % 1011,7 hPa 0,0 l/m 2,9 km/h (1 Bft) NO 45 -8,3 C -7,5 C 6,3 km/h (2 Bft)
05.02.2015 02:20 -5,9 C 1,6 C 83 % 83 % 1011,7 hPa 0,0 l/m 2,7 km/h (1 Bft) NO 45 -8,3 C -7,3 C 4,2 km/h (1 Bft)
05.02.2015 02:25 -5,9 C 1,6 C 83 % 83 % 1011,6 hPa 0,0 l/m 3,2 km/h (1 Bft) S 180 -8,3 C -7,7 C 6,3 km/h (2 Bft)
05.02.2015 02:30 -5,9 C 1,6 C 83 % 83 % 1011,6 hPa 0,0 l/m 3,2 km/h (1 Bft) O-NO 67 -8,3 C -7,7 C 3,9 km/h (1 Bft)
05.02.2015 02:35 -5,9 C 1,6 C 83 % 83 % 1011,6 hPa 0,0 l/m 3,9 km/h (1 Bft) NO 45 -8,3 C -8,2 C 8,4 km/h (2 Bft)
05.02.2015 02:40 -5,9 C 1,6 C 83 % 83 % 1011,6 hPa 0,0 l/m 3,4 km/h (1 Bft) O-NO 67 -8,3 C -7,8 C 3,5 km/h (1 Bft)
05.02.2015 02:45 -5,9 C 1,6 C 83 % 83 % 1011,4 hPa 0,0 l/m 3,1 km/h (1 Bft) N-NO 22 -8,3 C -7,6 C 3,9 km/h (1 Bft)
05.02.2015 02:50 -5,9 C 1,6 C 83 % 83 % 1011,4 hPa 0,0 l/m 3,5 km/h (1 Bft) NO 45 -8,3 C -8,0 C 4,7 km/h (1 Bft)
05.02.2015 02:55 -5,9 C 1,6 C 83 % 83 % 1011,4 hPa 0,0 l/m 3,9 km/h (1 Bft) NO 45 -8,3 C -8,2 C 8,9 km/h (2 Bft)
05.02.2015 03:00 -5,9 C 1,6 C 83 % 83 % 1011,4 hPa 0,0 l/m 4,5 km/h (1 Bft) N-NO 22 -8,3 C -8,7 C 8,7 km/h (2 Bft)
05.02.2015 03:05 -6,0 C 1,6 C 83 % 83 % 1011,3 hPa 0,0 l/m 4,5 km/h (1 Bft) O-NO 67 -8,4 C -8,7 C 5,0 km/h (1 Bft)
05.02.2015 03:10 -6,0 C 1,6 C 83 % 83 % 1011,3 hPa 0,0 l/m 4,7 km/h (1 Bft) NO 45 -8,4 C -8,8 C 6,6 km/h (2 Bft)
05.02.2015 03:15 -6,0 C 1,6 C 84 % 84 % 1011,3 hPa 0,0 l/m 3,4 km/h (1 Bft) O 90 -8,3 C -7,8 C 0,0 km/h (0 Bft)
05.02.2015 03:20 -6,0 C 1,6 C 84 % 84 % 1011,3 hPa 0,0 l/m 3,4 km/h (1 Bft) NO 45 -8,3 C -7,8 C 6,0 km/h (2 Bft)
05.02.2015 03:25 -6,0 C 1,6 C 84 % 84 % 1011,4 hPa 0,0 l/m 2,9 km/h (1 Bft) NO 45 -8,3 C -7,5 C 9,5 km/h (2 Bft)
05.02.2015 03:30 -6,0 C 1,6 C 84 % 84 % 1011,4 hPa 0,0 l/m 3,1 km/h (1 Bft) NO 45 -8,3 C -7,6 C 4,2 km/h (1 Bft)
05.02.2015 03:35 -6,0 C 1,6 C 84 % 84 % 1011,4 hPa 0,0 l/m 2,7 km/h (1 Bft) NO 45 -8,3 C -7,3 C 5,0 km/h (1 Bft)
05.02.2015 03:40 -6,0 C 1,6 C 84 % 84 % 1011,4 hPa 0,0 l/m 2,6 km/h (1 Bft) NO 45 -8,3 C -7,2 C 6,0 km/h (2 Bft)
05.02.2015 03:45 -6,0 C 1,6 C 84 % 84 % 1011,4 hPa 0,0 l/m 2,7 km/h (1 Bft) NO 45 -8,3 C -7,3 C 3,7 km/h (1 Bft)
05.02.2015 03:50 -6,0 C 1,6 C 84 % 84 % 1011,4 hPa 0,0 l/m 3,4 km/h (1 Bft) O-NO 67 -8,3 C -7,8 C 4,8 km/h (1 Bft)
05.02.2015 03:55 -6,0 C 1,6 C 84 % 84 % 1011,4 hPa 0,0 l/m 4,2 km/h (1 Bft) O-NO 67 -8,3 C -8,4 C 5,0 km/h (1 Bft)
05.02.2015 04:00 -6,0 C 1,6 C 84 % 84 % 1011,4 hPa 0,0 l/m 4,5 km/h (1 Bft) NO 45 -8,3 C -8,8 C 7,7 km/h (2 Bft)
05.02.2015 04:05 -6,1 C 1,6 C 84 % 84 % 1011,0 hPa 0,0 l/m 4,3 km/h (1 Bft) O-NO 67 -8,4 C -8,7 C 4,3 km/h (1 Bft)
05.02.2015 04:10 -6,1 C 1,6 C 84 % 84 % 1011,0 hPa 0,0 l/m 3,9 km/h (1 Bft) O-NO 67 -8,4 C -8,3 C 4,2 km/h (1 Bft)
05.02.2015 04:15 -6,1 C 1,6 C 84 % 84 % 1011,0 hPa 0,0 l/m 3,2 km/h (1 Bft) NO 45 -8,4 C -7,9 C 3,1 km/h (1 Bft)
05.02.2015 04:20 -6,1 C 1,6 C 84 % 84 % 1011,0 hPa 0,0 l/m 2,9 km/h (1 Bft) N-NO 22 -8,4 C -7,6 C 0,0 km/h (0 Bft)
05.02.2015 04:25 -6,1 C 1,6 C 84 % 84 % 1010,8 hPa 0,0 l/m 2,7 km/h (1 Bft) NO 45 -8,4 C -7,4 C 2,4 km/h (1 Bft)
05.02.2015 04:30 -6,1 C 1,6 C 85 % 85 % 1010,8 hPa 0,0 l/m 3,7 km/h (1 Bft) N-NW 337 -8,2 C -8,2 C 5,5 km/h (1 Bft)
05.02.2015 04:35 -6,1 C 1,6 C 85 % 85 % 1010,8 hPa 0,0 l/m 3,2 km/h (1 Bft) O-NO 67 -8,2 C -7,9 C 11,9 km/h (2 Bft)
05.02.2015 04:40 -6,1 C 1,6 C 85 % 85 % 1010,8 hPa 0,0 l/m 2,9 km/h (1 Bft) O-NO 67 -8,2 C -7,6 C 5,3 km/h (1 Bft)
05.02.2015 04:45 -6,1 C 1,5 C 85 % 85 % 1011,1 hPa 0,0 l/m 2,4 km/h (1 Bft) NW 315 -8,2 C -7,3 C 1,8 km/h (1 Bft)
05.02.2015 04:50 -6,2 C 1,5 C 85 % 85 % 1011,1 hPa 0,0 l/m 3,2 km/h (1 Bft) NO 45 -8,3 C -8,0 C 4,5 km/h (1 Bft)
05.02.2015 04:55 -6,2 C 1,5 C 85 % 85 % 1011,1 hPa 0,0 l/m 3,4 km/h (1 Bft) N-NO 22 -8,3 C -8,1 C 5,5 km/h (1 Bft)
05.02.2015 05:00 -6,1 C 1,5 C 85 % 85 % 1011,1 hPa 0,0 l/m 2,7 km/h (1 Bft) W 270 -8,2 C -7,6 C 0,0 km/h (0 Bft)
05.02.2015 05:05 -6,2 C 1,5 C 85 % 85 % 1011,1 hPa 0,0 l/m 1,4 km/h (1 Bft) W 270 -8,3 C -6,7 C 0,0 km/h (0 Bft)
05.02.2015 05:10 -6,2 C 1,5 C 85 % 85 % 1011,1 hPa 0,0 l/m 1,0 km/h (0 Bft) O-NO 67 -8,3 C -6,7 C 2,1 km/h (1 Bft)
05.02.2015 05:15 -6,2 C 1,5 C 85 % 85 % 1011,1 hPa 0,0 l/m 2,1 km/h (1 Bft) O-NO 67 -8,3 C -6,9 C 3,1 km/h (1 Bft)
05.02.2015 05:20 -6,2 C 1,5 C 85 % 85 % 1011,1 hPa 0,0 l/m 3,1 km/h (1 Bft) O-NO 67 -8,3 C -7,9 C 4,8 km/h (1 Bft)
05.02.2015 05:25 -6,1 C 1,5 C 85 % 85 % 1010,6 hPa 0,0 l/m 3,4 km/h (1 Bft) NO 45 -8,2 C -8,1 C 5,5 km/h (1 Bft)
05.02.2015 05:30 -6,1 C 1,5 C 85 % 85 % 1010,6 hPa 0,0 l/m 3,7 km/h (1 Bft) N-NO 22 -8,2 C -8,3 C 7,9 km/h (2 Bft)
05.02.2015 05:35 -6,2 C 1,5 C 85 % 85 % 1010,6 hPa 0,0 l/m 4,3 km/h (1 Bft) N-NO 22 -8,3 C -8,8 C 6,6 km/h (2 Bft)
05.02.2015 05:40 -6,2 C 1,5 C 85 % 85 % 1010,6 hPa 0,0 l/m 4,2 km/h (1 Bft) NO 45 -8,3 C -8,7 C 6,6 km/h (2 Bft)
05.02.2015 05:45 -6,2 C 1,5 C 85 % 85 % 1010,9 hPa 0,0 l/m 3,7 km/h (1 Bft) N-NO 22 -8,3 C -8,3 C 5,3 km/h (1 Bft)
05.02.2015 05:50 -6,2 C 1,5 C 85 % 85 % 1010,9 hPa 0,0 l/m 3,2 km/h (1 Bft) N-NO 22 -8,3 C -8,0 C 7,2 km/h (2 Bft)
05.02.2015 05:55 -6,2 C 1,5 C 85 % 85 % 1010,9 hPa 0,0 l/m 4,3 km/h (1 Bft) N-NO 22 -8,3 C -8,8 C 7,4 km/h (2 Bft)
05.02.2015 06:00 -6,2 C 1,5 C 85 % 85 % 1010,9 hPa 0,0 l/m 5,3 km/h (1 Bft) SO 135 -8,3 C -9,4 C 6,6 km/h (2 Bft)
05.02.2015 06:05 -6,2 C 1,5 C 85 % 85 % 1010,8 hPa 0,0 l/m 4,8 km/h (1 Bft) NO 45 -8,3 C -9,2 C 6,1 km/h (2 Bft)
05.02.2015 06:10 -6,2 C 1,5 C 85 % 85 % 1010,8 hPa 0,0 l/m 4,3 km/h (1 Bft) O-NO 67 -8,3 C -8,9 C 4,0 km/h (1 Bft)
05.02.2015 06:15 -6,2 C 1,5 C 85 % 85 % 1010,8 hPa 0,0 l/m 3,7 km/h (1 Bft) NO 45 -8,3 C -8,4 C 7,6 km/h (2 Bft)
05.02.2015 06:20 -6,2 C 1,5 C 85 % 85 % 1010,8 hPa 0,0 l/m 3,7 km/h (1 Bft) NO 45 -8,3 C -8,4 C 4,3 km/h (1 Bft)
05.02.2015 06:25 -6,3 C 1,5 C 85 % 85 % 1010,6 hPa 0,0 l/m 3,7 km/h (1 Bft) O-NO 67 -8,4 C -8,4 C 3,9 km/h (1 Bft)
05.02.2015 06:30 -6,3 C 1,5 C 85 % 85 % 1010,6 hPa 0,0 l/m 3,4 km/h (1 Bft) O-NO 67 -8,4 C -8,2 C 5,1 km/h (1 Bft)
05.02.2015 06:35 -6,3 C 1,5 C 85 % 85 % 1010,6 hPa 0,0 l/m 3,7 km/h (1 Bft) O-NO 67 -8,4 C -8,4 C 5,1 km/h (1 Bft)
05.02.2015 06:40 -6,3 C 1,5 C 85 % 85 % 1010,6 hPa 0,0 l/m 3,7 km/h (1 Bft) N-NO 22 -8,4 C -8,4 C 3,9 km/h (1 Bft)
05.02.2015 06:45 -6,3 C 1,5 C 85 % 85 % 1010,8 hPa 0,0 l/m 4,5 km/h (1 Bft) O-NO 67 -8,4 C -9,0 C 6,9 km/h (2 Bft)
05.02.2015 06:50 -6,3 C 1,5 C 85 % 85 % 1010,8 hPa 0,0 l/m 5,0 km/h (1 Bft) N-NO 22 -8,4 C -9,3 C 7,7 km/h (2 Bft)
05.02.2015 06:55 -6,4 C 1,5 C 85 % 85 % 1010,8 hPa 0,0 l/m 5,0 km/h (1 Bft) NO 45 -8,5 C -9,4 C 5,0 km/h (1 Bft)
05.02.2015 07:00 -6,4 C 1,5 C 85 % 85 % 1010,8 hPa 0,0 l/m 5,3 km/h (1 Bft) N-NO 22 -8,5 C -9,6 C 9,2 km/h (2 Bft)
05.02.2015 07:05 -6,4 C 1,5 C 85 % 85 % 1010,9 hPa 0,0 l/m 5,8 km/h (2 Bft) N-NO 22 -8,5 C -9,8 C 8,5 km/h (2 Bft)
05.02.2015 07:10 -6,4 C 1,5 C 85 % 85 % 1010,9 hPa 0,0 l/m 6,0 km/h (2 Bft) N-NO 22 -8,5 C -9,9 C 5,0 km/h (1 Bft)
05.02.2015 07:15 -6,4 C 1,5 C 85 % 85 % 1010,9 hPa 0,0 l/m 4,5 km/h (1 Bft) N-NW 337 -8,5 C -9,2 C 2,1 km/h (1 Bft)
05.02.2015 07:20 -6,5 C 1,5 C 85 % 85 % 1010,9 hPa 0,0 l/m 3,9 km/h (1 Bft) O-NO 67 -8,6 C -8,8 C 7,7 km/h (2 Bft)
05.02.2015 07:25 -6,5 C 1,5 C 85 % 85 % 1010,9 hPa 0,0 l/m 4,3 km/h (1 Bft) O-NO 67 -8,6 C -9,1 C 4,2 km/h (1 Bft)
05.02.2015 07:30 -6,5 C 1,5 C 85 % 85 % 1010,9 hPa 0,0 l/m 4,2 km/h (1 Bft) O-NO 67 -8,6 C -9,0 C 6,0 km/h (2 Bft)
05.02.2015 07:35 -6,5 C 1,5 C 84 % 84 % 1010,9 hPa 0,0 l/m 4,2 km/h (1 Bft) O-NO 67 -8,7 C -9,0 C 1,9 km/h (1 Bft)
05.02.2015 07:40 -6,6 C 1,5 C 84 % 84 % 1010,9 hPa 0,0 l/m 4,0 km/h (1 Bft) N-NO 22 -8,8 C -9,1 C 2,1 km/h (1 Bft)
05.02.2015 07:45 -6,6 C 1,5 C 84 % 84 % 1010,8 hPa 0,0 l/m 3,4 km/h (1 Bft) N-NO 22 -8,8 C -8,6 C 3,9 km/h (1 Bft)
05.02.2015 07:50 -6,6 C 1,5 C 84 % 84 % 1010,8 hPa 0,0 l/m 4,0 km/h (1 Bft) O-NO 67 -8,8 C -9,1 C 6,8 km/h (2 Bft)
05.02.2015 07:55 -6,6 C 1,5 C 84 % 84 % 1010,8 hPa 0,0 l/m 3,9 km/h (1 Bft) SW 225 -8,8 C -8,9 C 3,4 km/h (1 Bft)
05.02.2015 08:00 -6,6 C 1,5 C 84 % 84 % 1010,8 hPa 0,0 l/m 3,2 km/h (1 Bft) O-NO 67 -8,8 C -8,4 C 4,3 km/h (1 Bft)
05.02.2015 08:05 -6,6 C 1,5 C 84 % 84 % 1010,8 hPa 0,0 l/m 1,9 km/h (1 Bft) N-NO 22 -8,8 C -7,1 C 3,2 km/h (1 Bft)
05.02.2015 08:10 -6,7 C 1,5 C 84 % 84 % 1010,8 hPa 0,0 l/m 2,6 km/h (1 Bft) NO 45 -8,9 C -7,8 C 5,8 km/h (2 Bft)
05.02.2015 08:15 -6,7 C 1,5 C 84 % 84 % 1010,8 hPa 0,0 l/m 3,9 km/h (1 Bft) O-NO 67 -8,9 C -8,9 C 2,9 km/h (1 Bft)
05.02.2015 08:20 -6,7 C 1,5 C 84 % 84 % 1010,8 hPa 0,0 l/m 3,4 km/h (1 Bft) NO 45 -8,9 C -8,6 C 3,5 km/h (1 Bft)
05.02.2015 08:25 -6,7 C 1,5 C 84 % 84 % 1011,1 hPa 0,0 l/m 3,5 km/h (1 Bft) O-NO 67 -8,9 C -8,8 C 4,8 km/h (1 Bft)
05.02.2015 08:30 -6,7 C 1,5 C 84 % 84 % 1011,1 hPa 0,0 l/m 3,4 km/h (1 Bft) N-NO 22 -8,9 C -8,7 C 3,4 km/h (1 Bft)
05.02.2015 08:35 -6,7 C 1,5 C 84 % 84 % 1011,1 hPa 0,0 l/m 3,2 km/h (1 Bft) O-NO 67 -8,9 C -8,6 C 3,7 km/h (1 Bft)
05.02.2015 08:40 -6,7 C 1,5 C 84 % 84 % 1011,1 hPa 0,0 l/m 3,2 km/h (1 Bft) NO 45 -8,9 C -8,4 C 1,9 km/h (1 Bft)
05.02.2015 08:45 -6,7 C 1,5 C 84 % 84 % 1011,2 hPa 0,0 l/m 3,1 km/h (1 Bft) NO 45 -8,9 C -8,3 C 4,8 km/h (1 Bft)
05.02.2015 08:50 -6,6 C 1,5 C 84 % 84 % 1011,2 hPa 0,0 l/m 3,2 km/h (1 Bft) N-NO 22 -8,8 C -8,4 C 3,2 km/h (1 Bft)
05.02.2015 08:55 -6,6 C 1,5 C 84 % 84 % 1011,2 hPa 0,0 l/m 3,1 km/h (1 Bft) N-NW 337 -8,8 C -8,3 C 4,7 km/h (1 Bft)
05.02.2015 09:00 -6,6 C 1,5 C 84 % 84 % 1011,2 hPa 0,0 l/m 2,9 km/h (1 Bft) SO 135 -8,8 C -8,2 C 3,4 km/h (1 Bft)
05.02.2015 09:05 -6,7 C 1,5 C 84 % 84 % 1011,4 hPa 0,0 l/m 3,7 km/h (1 Bft) N-NO 22 -8,9 C -8,8 C 7,4 km/h (2 Bft)
05.02.2015 09:10 -6,6 C 1,5 C 84 % 84 % 1011,4 hPa 0,0 l/m 4,0 km/h (1 Bft) O-NO 67 -8,8 C -8,9 C 5,8 km/h (2 Bft)
05.02.2015 09:15 -6,6 C 1,5 C 84 % 84 % 1011,4 hPa 0,0 l/m 3,4 km/h (1 Bft) NO 45 -8,8 C -8,4 C 0,0 km/h (0 Bft)
05.02.2015 09:20 -6,5 C 1,5 C 84 % 84 % 1011,4 hPa 0,0 l/m 2,9 km/h (1 Bft) NW 315 -8,7 C -8,1 C 0,0 km/h (0 Bft)
05.02.2015 09:25 -6,6 C 1,5 C 84 % 84 % 1011,3 hPa 0,0 l/m 3,9 km/h (1 Bft) O-NO 67 -8,8 C -8,8 C 4,0 km/h (1 Bft)
05.02.2015 09:30 -6,7 C 1,5 C 84 % 84 % 1011,3 hPa 0,0 l/m 5,3 km/h (1 Bft) N-NO 22 -8,9 C -9,7 C 7,1 km/h (2 Bft)
05.02.2015 09:35 -6,7 C 1,5 C 84 % 84 % 1011,3 hPa 0,0 l/m 5,1 km/h (1 Bft) O 90 -8,9 C -9,6 C 7,4 km/h (2 Bft)
05.02.2015 09:40 -6,7 C 1,5 C 84 % 84 % 1011,3 hPa 0,0 l/m 4,5 km/h (1 Bft) NO 45 -8,9 C -9,2 C 4,0 km/h (1 Bft)
05.02.2015 09:45 -6,7 C 1,5 C 84 % 84 % 1011,3 hPa 0,0 l/m 3,7 km/h (1 Bft) O 90 -8,9 C -8,7 C 2,1 km/h (1 Bft)
05.02.2015 09:50 -6,7 C 1,5 C 84 % 84 % 1011,3 hPa 0,0 l/m 3,5 km/h (1 Bft) O 90 -8,9 C -8,6 C 5,1 km/h (1 Bft)
05.02.2015 09:55 -6,7 C 1,5 C 84 % 84 % 1011,3 hPa 0,0 l/m 4,0 km/h (1 Bft) O 90 -8,9 C -8,9 C 6,6 km/h (2 Bft)
05.02.2015 10:00 -6,7 C 1,5 C 84 % 84 % 1011,3 hPa 0,0 l/m 4,5 km/h (1 Bft) NO 45 -8,9 C -9,2 C 7,2 km/h (2 Bft)
05.02.2015 10:05 -6,6 C 1,5 C 84 % 84 % 1011,2 hPa 0,0 l/m 4,7 km/h (1 Bft) O-NO 67 -8,8 C -9,3 C 4,8 km/h (1 Bft)
05.02.2015 10:10 -6,6 C 1,5 C 84 % 84 % 1011,2 hPa 0,0 l/m 4,0 km/h (1 Bft) N-NO 22 -8,8 C -8,8 C 4,7 km/h (1 Bft)
05.02.2015 10:15 -6,7 C 1,5 C 84 % 84 % 1011,2 hPa 0,0 l/m 3,9 km/h (1 Bft) O-SO 112 -8,9 C -8,7 C 10,0 km/h (2 Bft)
05.02.2015 10:20 -6,8 C 1,5 C 84 % 84 % 1011,2 hPa 0,0 l/m 5,1 km/h (1 Bft) NO 45 -9,0 C -9,6 C 9,7 km/h (2 Bft)
05.02.2015 10:25 -6,7 C 1,5 C 84 % 84 % 1011,4 hPa 0,0 l/m 5,1 km/h (1 Bft) NO 45 -8,9 C -9,6 C 12,6 km/h (3 Bft)
05.02.2015 10:30 -6,6 C 1,5 C 84 % 84 % 1011,4 hPa 0,0 l/m 4,2 km/h (1 Bft) NO 45 -8,8 C -9,0 C 1,9 km/h (1 Bft)
05.02.2015 10:35 -6,6 C 1,5 C 84 % 84 % 1011,4 hPa 0,0 l/m 3,5 km/h (1 Bft) NO 45 -8,8 C -8,4 C 3,7 km/h (1 Bft)
05.02.2015 10:40 -6,6 C 1,5 C 84 % 84 % 1011,4 hPa 0,0 l/m 3,1 km/h (1 Bft) NO 45 -8,8 C -8,1 C 5,5 km/h (1 Bft)
05.02.2015 10:45 -6,7 C 1,5 C 83 % 83 % 1011,6 hPa 0,0 l/m 4,2 km/h (1 Bft) O-NO 67 -9,1 C -8,9 C 8,4 km/h (2 Bft)
05.02.2015 10:50 -6,7 C 1,5 C 83 % 83 % 1011,6 hPa 0,0 l/m 5,1 km/h (1 Bft) N 360 -9,1 C -9,5 C 6,8 km/h (2 Bft)
05.02.2015 10:55 -6,5 C 1,5 C 83 % 83 % 1012,4 hPa 0,0 l/m 5,0 km/h (1 Bft) N-NO 22 -8,9 C -9,3 C 12,7 km/h (3 Bft)
05.02.2015 11:00 -6,3 C 1,5 C 83 % 83 % 1013,9 hPa 0,0 l/m 4,5 km/h (1 Bft) O-NO 67 -8,7 C -8,9 C 4,3 km/h (1 Bft)
05.02.2015 11:05 -6,3 C 1,6 C 83 % 83 % 1013,9 hPa 0,0 l/m 4,8 km/h (1 Bft) NO 45 -8,7 C -8,9 C 8,5 km/h (2 Bft)
05.02.2015 11:10 -6,4 C 1,6 C 83 % 83 % 1013,9 hPa 0,0 l/m 6,0 km/h (2 Bft) NO 45 -8,8 C -9,3 C 8,4 km/h (2 Bft)
05.02.2015 11:15 -6,4 C 1,6 C 83 % 83 % 1013,7 hPa 0,0 l/m 6,3 km/h (2 Bft) O-NO 67 -8,8 C -9,7 C 9,3 km/h (2 Bft)
05.02.2015 11:20 -6,4 C 1,6 C 82 % 82 % 1013,7 hPa 0,0 l/m 5,6 km/h (1 Bft) NO 45 -9,0 C -9,3 C 5,3 km/h (1 Bft)
05.02.2015 11:25 -6,3 C 1,6 C 82 % 82 % 1013,7 hPa 0,0 l/m 5,0 km/h (1 Bft) O-NO 67 -8,9 C -9,1 C 7,9 km/h (2 Bft)
05.02.2015 11:30 -6,5 C 1,5 C 82 % 82 % 1013,7 hPa 0,0 l/m 5,3 km/h (1 Bft) N-NO 22 -9,0 C -9,3 C 8,4 km/h (2 Bft)
05.02.2015 11:35 -6,5 C 1,5 C 82 % 82 % 1013,0 hPa 0,0 l/m 5,8 km/h (2 Bft) O-NO 67 -9,0 C -9,7 C 13,2 km/h (3 Bft)
05.02.2015 11:40 -6,7 C 1,5 C 82 % 82 % 1013,0 hPa 0,0 l/m 5,3 km/h (1 Bft) O-NO 67 -9,2 C -9,4 C 5,0 km/h (1 Bft)
05.02.2015 11:45 -6,7 C 1,5 C 82 % 82 % 1013,0 hPa 0,0 l/m 5,3 km/h (1 Bft) N-NW 337 -9,2 C -9,6 C 5,8 km/h (2 Bft)
05.02.2015 11:50 -6,7 C 1,5 C 82 % 82 % 1013,0 hPa 0,0 l/m 5,0 km/h (1 Bft) N-NO 22 -9,2 C -9,4 C 6,9 km/h (2 Bft)
05.02.2015 11:55 -6,8 C 1,5 C 82 % 82 % 1013,0 hPa 0,0 l/m 6,0 km/h (2 Bft) N-NO 22 -9,3 C -10,1 C 9,0 km/h (2 Bft)
05.02.2015 12:00 -6,8 C 1,5 C 82 % 82 % 1013,0 hPa 0,0 l/m 6,1 km/h (2 Bft) NO 45 -9,3 C -10,2 C 8,0 km/h (2 Bft)
05.02.2015 12:05 -6,7 C 1,5 C 82 % 82 % 1013,0 hPa 0,0 l/m 5,1 km/h (1 Bft) O-NO 67 -9,2 C -9,6 C 6,8 km/h (2 Bft)
05.02.2015 12:10 -6,7 C 1,5 C 82 % 82 % 1013,0 hPa 0,0 l/m 5,0 km/h (1 Bft) O-NO 67 -9,2 C -9,5 C 9,3 km/h (2 Bft)
05.02.2015 12:15 -6,7 C 1,5 C 82 % 82 % 1012,9 hPa 0,0 l/m 4,8 km/h (1 Bft) O-NO 67 -9,2 C -9,4 C 6,3 km/h (2 Bft)
05.02.2015 12:20 -6,6 C 1,5 C 82 % 82 % 1012,9 hPa 0,0 l/m 3,7 km/h (1 Bft) NO 45 -9,1 C -8,7 C 5,5 km/h (1 Bft)
05.02.2015 12:25 -6,6 C 1,5 C 82 % 82 % 1012,9 hPa 0,0 l/m 4,0 km/h (1 Bft) O-NO 67 -9,1 C -8,8 C 6,1 km/h (2 Bft)
05.02.2015 12:30 -6,4 C 1,5 C 82 % 82 % 1012,9 hPa 0,0 l/m 3,7 km/h (1 Bft) O-NO 67 -9,0 C -8,4 C 3,9 km/h (1 Bft)
05.02.2015 12:35 -6,4 C 1,5 C 82 % 82 % 1013,0 hPa 0,0 l/m 3,4 km/h (1 Bft) O-NO 67 -9,0 C -8,1 C 5,0 km/h (1 Bft)
05.02.2015 12:40 -6,5 C 1,5 C 81 % 81 % 1013,0 hPa 0,0 l/m 3,7 km/h (1 Bft) O 90 -9,2 C -8,3 C 5,0 km/h (1 Bft)
05.02.2015 12:45 -6,5 C 1,5 C 81 % 81 % 1013,0 hPa 0,0 l/m 4,5 km/h (1 Bft) N-NO 22 -9,2 C -8,9 C 3,4 km/h (1 Bft)
05.02.2015 12:50 -6,5 C 1,5 C 81 % 81 % 1013,0 hPa 0,0 l/m 5,0 km/h (1 Bft) NO 45 -9,2 C -9,2 C 7,2 km/h (2 Bft)
05.02.2015 12:55 -6,5 C 1,5 C 81 % 81 % 1013,1 hPa 0,0 l/m 5,1 km/h (1 Bft) O-SO 112 -9,2 C -9,3 C 6,8 km/h (2 Bft)
05.02.2015 13:00 -6,5 C 1,5 C 81 % 81 % 1013,1 hPa 0,0 l/m 5,0 km/h (1 Bft) O-NO 67 -9,2 C -9,2 C 4,3 km/h (1 Bft)
05.02.2015 13:05 -6,5 C 1,5 C 81 % 81 % 1013,1 hPa 0,0 l/m 5,6 km/h (1 Bft) N-NO 22 -9,2 C -9,6 C 14,8 km/h (3 Bft)
05.02.2015 13:10 -6,6 C 1,5 C 80 % 80 % 1013,1 hPa 0,0 l/m 6,4 km/h (2 Bft) NO 45 -9,5 C -10,0 C 7,9 km/h (2 Bft)
05.02.2015 13:15 -6,6 C 1,5 C 80 % 80 % 1012,9 hPa 0,0 l/m 5,8 km/h (2 Bft) NO 45 -9,5 C -9,7 C 5,3 km/h (1 Bft)
05.02.2015 13:20 -6,6 C 1,5 C 80 % 80 % 1012,9 hPa 0,0 l/m 5,6 km/h (1 Bft) N-NO 22 -9,5 C -9,6 C 5,6 km/h (1 Bft)
05.02.2015 13:25 -6,6 C 1,5 C 80 % 80 % 1012,9 hPa 0,0 l/m 6,4 km/h (2 Bft) N-NO 22 -9,5 C -10,0 C 15,6 km/h (3 Bft)
05.02.2015 13:30 -6,5 C 1,5 C 80 % 80 % 1012,9 hPa 0,0 l/m 5,8 km/h (2 Bft) N-NO 22 -9,4 C -9,7 C 10,5 km/h (2 Bft)
05.02.2015 13:35 -6,5 C 1,5 C 79 % 79 % 1012,9 hPa 0,0 l/m 5,3 km/h (1 Bft) NO 45 -9,5 C -9,4 C 6,0 km/h (2 Bft)
05.02.2015 13:40 -6,5 C 1,5 C 79 % 79 % 1012,9 hPa 0,0 l/m 5,6 km/h (1 Bft) NO 45 -9,5 C -9,6 C 6,6 km/h (2 Bft)
05.02.2015 13:45 -6,6 C 1,5 C 79 % 79 % 1012,9 hPa 0,0 l/m 6,1 km/h (2 Bft) NO 45 -9,6 C -9,9 C 9,0 km/h (2 Bft)
05.02.2015 13:50 -6,5 C 1,5 C 79 % 79 % 1012,9 hPa 0,0 l/m 6,3 km/h (2 Bft) O-NO 67 -9,5 C -9,9 C 8,9 km/h (2 Bft)
05.02.2015 13:55 -6,4 C 1,5 C 79 % 79 % 1012,9 hPa 0,0 l/m 6,0 km/h (2 Bft) NO 45 -9,4 C -9,7 C 5,3 km/h (1 Bft)
05.02.2015 14:00 -6,5 C 1,5 C 79 % 79 % 1012,9 hPa 0,0 l/m 6,3 km/h (2 Bft) N-NO 22 -9,5 C -9,9 C 10,1 km/h (2 Bft)
05.02.2015 14:05 -6,4 C 1,5 C 79 % 79 % 1012,9 hPa 0,0 l/m 5,8 km/h (2 Bft) O 90 -9,4 C -9,7 C 11,7 km/h (2 Bft)
05.02.2015 14:10 -6,4 C 1,5 C 79 % 79 % 1012,9 hPa 0,0 l/m 4,8 km/h (1 Bft) N-NO 22 -9,4 C -9,0 C 4,8 km/h (1 Bft)
05.02.2015 14:15 -6,3 C 1,5 C 79 % 79 % 1012,9 hPa 0,0 l/m 4,7 km/h (1 Bft) N-NO 22 -9,3 C -8,9 C 3,1 km/h (1 Bft)
05.02.2015 14:20 -6,4 C 1,5 C 79 % 79 % 1012,9 hPa 0,0 l/m 4,5 km/h (1 Bft) O-NO 67 -9,4 C -8,8 C 11,4 km/h (2 Bft)
05.02.2015 14:25 -6,4 C 1,5 C 79 % 79 % 1012,9 hPa 0,0 l/m 4,8 km/h (1 Bft) NO 45 -9,4 C -9,0 C 6,4 km/h (2 Bft)
05.02.2015 14:30 -6,4 C 1,5 C 79 % 79 % 1012,9 hPa 0,0 l/m 5,6 km/h (1 Bft) NO 45 -9,4 C -9,4 C 9,3 km/h (2 Bft)
05.02.2015 14:35 -6,4 C 1,5 C 79 % 79 % 1013,1 hPa 0,0 l/m 6,1 km/h (2 Bft) O-NO 67 -9,4 C -9,8 C 7,4 km/h (2 Bft)
05.02.2015 14:40 -6,3 C 1,5 C 79 % 79 % 1013,1 hPa 0,0 l/m 5,5 km/h (1 Bft) NO 45 -9,3 C -9,3 C 5,0 km/h (1 Bft)
05.02.2015 14:45 -6,3 C 1,5 C 79 % 79 % 1013,1 hPa 0,0 l/m 4,0 km/h (1 Bft) N-NO 22 -9,3 C -8,5 C 4,5 km/h (1 Bft)
05.02.2015 14:50 -6,3 C 1,5 C 79 % 79 % 1013,1 hPa 0,0 l/m 4,2 km/h (1 Bft) W-SW 247 -9,3 C -8,6 C 2,6 km/h (1 Bft)
05.02.2015 14:55 -6,3 C 1,5 C 79 % 79 % 1013,1 hPa 0,0 l/m 4,5 km/h (1 Bft) NO 45 -9,3 C -8,8 C 7,6 km/h (2 Bft)
05.02.2015 15:00 -6,3 C 1,5 C 79 % 79 % 1013,1 hPa 0,0 l/m 4,5 km/h (1 Bft) O-NO 67 -9,3 C -8,8 C 8,4 km/h (2 Bft)
05.02.2015 15:05 -6,3 C 1,5 C 79 % 79 % 1013,1 hPa 0,0 l/m 5,1 km/h (1 Bft) NO 45 -9,3 C -9,2 C 10,8 km/h (2 Bft)
05.02.2015 15:10 -6,3 C 1,5 C 79 % 79 % 1013,1 hPa 0,0 l/m 5,5 km/h (1 Bft) N-NO 22 -9,3 C -9,3 C 7,7 km/h (2 Bft)
05.02.2015 15:15 -6,2 C 1,5 C 79 % 79 % 1013,3 hPa 0,0 l/m 5,1 km/h (1 Bft) N-NO 22 -9,2 C -9,2 C 5,5 km/h (1 Bft)
05.02.2015 15:20 -6,1 C 1,5 C 79 % 79 % 1013,3 hPa 0,0 l/m 4,5 km/h (1 Bft) N-NO 22 -9,1 C -8,7 C 4,0 km/h (1 Bft)
05.02.2015 15:25 -6,1 C 1,5 C 79 % 79 % 1013,3 hPa 0,0 l/m 4,5 km/h (1 Bft) NO 45 -9,1 C -8,6 C 10,1 km/h (2 Bft)
05.02.2015 15:30 -6,2 C 1,5 C 79 % 79 % 1013,3 hPa 0,0 l/m 5,1 km/h (1 Bft) O-NO 67 -9,2 C -8,8 C 8,5 km/h (2 Bft)
05.02.2015 15:35 -6,2 C 1,5 C 79 % 79 % 1013,2 hPa 0,0 l/m 5,3 km/h (1 Bft) N-NO 22 -9,2 C -9,0 C 5,0 km/h (1 Bft)
05.02.2015 15:40 -6,2 C 1,5 C 79 % 79 % 1013,2 hPa 0,0 l/m 4,7 km/h (1 Bft) O-NO 67 -9,2 C -8,8 C 8,2 km/h (2 Bft)
05.02.2015 15:45 -6,3 C 1,5 C 80 % 80 % 1013,2 hPa 0,0 l/m 4,5 km/h (1 Bft) NO 45 -9,2 C -8,7 C 13,8 km/h (3 Bft)
05.02.2015 15:50 -6,3 C 1,5 C 80 % 80 % 1013,2 hPa 0,0 l/m 5,0 km/h (1 Bft) SO 135 -9,2 C -9,1 C 6,9 km/h (2 Bft)
05.02.2015 15:55 -6,3 C 1,5 C 80 % 80 % 1013,2 hPa 0,0 l/m 5,0 km/h (1 Bft) O-NO 67 -9,2 C -9,2 C 6,8 km/h (2 Bft)
05.02.2015 16:00 -6,4 C 1,5 C 81 % 81 % 1013,2 hPa 0,0 l/m 4,8 km/h (1 Bft) O-NO 67 -9,1 C -9,1 C 5,8 km/h (2 Bft)
05.02.2015 16:05 -6,3 C 1,5 C 81 % 81 % 1013,2 hPa 0,0 l/m 4,3 km/h (1 Bft) O-NO 67 -9,0 C -8,8 C 4,2 km/h (1 Bft)
05.02.2015 16:10 -6,3 C 1,5 C 81 % 81 % 1013,2 hPa 0,0 l/m 4,0 km/h (1 Bft) O-NO 67 -9,0 C -8,7 C 7,1 km/h (2 Bft)
05.02.2015 16:15 -6,3 C 1,5 C 81 % 81 % 1013,4 hPa 0,0 l/m 4,2 km/h (1 Bft) S 180 -9,0 C -8,7 C 5,8 km/h (2 Bft)
05.02.2015 16:20 -6,2 C 1,5 C 82 % 82 % 1013,4 hPa 0,0 l/m 3,5 km/h (1 Bft) SO 135 -8,8 C -8,2 C 4,0 km/h (1 Bft)
05.02.2015 16:25 -6,3 C 1,5 C 82 % 82 % 1013,4 hPa 0,0 l/m 4,5 km/h (1 Bft) O-NO 67 -8,9 C -8,9 C 8,0 km/h (2 Bft)
05.02.2015 16:30 -6,3 C 1,5 C 82 % 82 % 1013,4 hPa 0,0 l/m 5,1 km/h (1 Bft) O-NO 67 -8,9 C -9,3 C 3,9 km/h (1 Bft)
05.02.2015 16:35 -6,3 C 1,5 C 82 % 82 % 1013,2 hPa 0,0 l/m 4,5 km/h (1 Bft) NO 45 -8,9 C -9,0 C 4,7 km/h (1 Bft)
05.02.2015 16:40 -6,3 C 1,5 C 82 % 82 % 1013,2 hPa 0,0 l/m 3,9 km/h (1 Bft) NO 45 -8,9 C -8,6 C 6,3 km/h (2 Bft)
05.02.2015 16:45 -6,3 C 1,5 C 82 % 82 % 1013,2 hPa 0,0 l/m 4,0 km/h (1 Bft) NO 45 -8,9 C -8,7 C 4,3 km/h (1 Bft)
05.02.2015 16:50 -6,3 C 1,5 C 82 % 82 % 1013,2 hPa 0,0 l/m 4,2 km/h (1 Bft) O-NO 67 -8,9 C -8,8 C 6,3 km/h (2 Bft)
05.02.2015 16:55 -6,3 C 1,5 C 83 % 83 % 1013,2 hPa 0,0 l/m 3,2 km/h (1 Bft) N-NO 22 -8,7 C -8,1 C 2,3 km/h (1 Bft)
05.02.2015 17:00 -6,3 C 1,5 C 83 % 83 % 1013,2 hPa 0,0 l/m 3,4 km/h (1 Bft) NW 315 -8,7 C -8,2 C 4,5 km/h (1 Bft)
05.02.2015 17:05 -6,3 C 1,5 C 83 % 83 % 1013,2 hPa 0,0 l/m 4,0 km/h (1 Bft) NO 45 -8,7 C -8,7 C 6,8 km/h (2 Bft)
05.02.2015 17:10 -6,3 C 1,5 C 83 % 83 % 1013,2 hPa 0,0 l/m 4,0 km/h (1 Bft) NO 45 -8,7 C -8,7 C 4,8 km/h (1 Bft)
05.02.2015 17:15 -6,3 C 1,5 C 83 % 83 % 1013,2 hPa 0,0 l/m 4,7 km/h (1 Bft) O-NO 67 -8,7 C -9,1 C 6,3 km/h (2 Bft)
05.02.2015 17:20 -6,3 C 1,5 C 83 % 83 % 1013,2 hPa 0,0 l/m 4,7 km/h (1 Bft) NO 45 -8,7 C -9,1 C 4,8 km/h (1 Bft)
05.02.2015 17:25 -6,3 C 1,5 C 83 % 83 % 1013,2 hPa 0,0 l/m 4,2 km/h (1 Bft) N-NO 22 -8,7 C -8,8 C 3,9 km/h (1 Bft)
05.02.2015 17:30 -6,3 C 1,5 C 83 % 83 % 1013,2 hPa 0,0 l/m 4,0 km/h (1 Bft) NO 45 -8,7 C -8,7 C 4,7 km/h (1 Bft)
05.02.2015 17:35 -6,3 C 1,5 C 83 % 83 % 1013,3 hPa 0,0 l/m 3,7 km/h (1 Bft) O-NO 67 -8,7 C -8,4 C 6,0 km/h (2 Bft)
05.02.2015 17:40 -6,3 C 1,5 C 83 % 83 % 1013,3 hPa 0,0 l/m 3,1 km/h (1 Bft) N-NO 22 -8,7 C -7,9 C 2,7 km/h (1 Bft)
05.02.2015 17:45 -6,3 C 1,5 C 83 % 83 % 1013,3 hPa 0,0 l/m 2,7 km/h (1 Bft) NO 45 -8,7 C -7,6 C 3,1 km/h (1 Bft)
05.02.2015 17:50 -6,2 C 1,5 C 83 % 83 % 1013,3 hPa 0,0 l/m 2,9 km/h (1 Bft) S 180 -8,6 C -7,8 C 5,5 km/h (1 Bft)
05.02.2015 17:55 -6,2 C 1,5 C 83 % 83 % 1013,2 hPa 0,0 l/m 2,7 km/h (1 Bft) O-NO 67 -8,6 C -7,6 C 0,0 km/h (0 Bft)
05.02.2015 18:00 -6,2 C 1,5 C 84 % 84 % 1013,2 hPa 0,0 l/m 2,9 km/h (1 Bft) O-NO 67 -8,4 C -7,8 C 2,1 km/h (1 Bft)
05.02.2015 18:05 -6,2 C 1,5 C 84 % 84 % 1013,2 hPa 0,0 l/m 3,2 km/h (1 Bft) O-NO 67 -8,4 C -8,1 C 4,8 km/h (1 Bft)
05.02.2015 18:10 -6,2 C 1,5 C 84 % 84 % 1013,2 hPa 0,0 l/m 2,9 km/h (1 Bft) N-NO 22 -8,4 C -7,7 C 0,0 km/h (0 Bft)
05.02.2015 18:15 -6,2 C 1,5 C 84 % 84 % 1013,2 hPa 0,0 l/m 2,6 km/h (1 Bft) NO 45 -8,4 C -7,4 C 3,4 km/h (1 Bft)
05.02.2015 18:20 -6,2 C 1,5 C 84 % 84 % 1013,2 hPa 0,0 l/m 2,3 km/h (1 Bft) O-NO 67 -8,4 C -7,1 C 4,2 km/h (1 Bft)
05.02.2015 18:25 -6,2 C 1,5 C 84 % 84 % 1013,2 hPa 0,0 l/m 2,1 km/h (1 Bft) O-NO 67 -8,4 C -6,9 C 3,9 km/h (1 Bft)
05.02.2015 18:30 -6,2 C 1,5 C 84 % 84 % 1013,2 hPa 0,0 l/m 2,4 km/h (1 Bft) N-NO 22 -8,4 C -7,3 C 3,9 km/h (1 Bft)
05.02.2015 18:35 -6,2 C 1,5 C 84 % 84 % 1013,3 hPa 0,0 l/m 2,3 km/h (1 Bft) N-NO 22 -8,4 C -7,1 C 2,3 km/h (1 Bft)
05.02.2015 18:40 -6,1 C 1,5 C 84 % 84 % 1013,3 hPa 0,0 l/m 2,4 km/h (1 Bft) O-NO 67 -8,4 C -7,3 C 6,3 km/h (2 Bft)
05.02.2015 18:45 -6,1 C 1,5 C 84 % 84 % 1013,3 hPa 0,0 l/m 2,3 km/h (1 Bft) NO 45 -8,4 C -7,1 C 4,2 km/h (1 Bft)
05.02.2015 18:50 -6,1 C 1,5 C 84 % 84 % 1013,3 hPa 0,0 l/m 3,2 km/h (1 Bft) NO 45 -8,4 C -8,0 C 4,0 km/h (1 Bft)
05.02.2015 18:55 -6,1 C 1,5 C 84 % 84 % 1013,3 hPa 0,0 l/m 3,9 km/h (1 Bft) O-NO 67 -8,4 C -8,4 C 4,2 km/h (1 Bft)
05.02.2015 19:00 -6,1 C 1,5 C 84 % 84 % 1013,3 hPa 0,0 l/m 3,1 km/h (1 Bft) NO 45 -8,4 C -7,9 C 0,0 km/h (0 Bft)
05.02.2015 19:05 -6,1 C 1,5 C 84 % 84 % 1013,3 hPa 0,0 l/m 3,2 km/h (1 Bft) NO 45 -8,4 C -8,0 C 5,8 km/h (2 Bft)
05.02.2015 19:10 -6,1 C 1,5 C 84 % 84 % 1013,3 hPa 0,0 l/m 3,1 km/h (1 Bft) NO 45 -8,4 C -7,9 C 4,7 km/h (1 Bft)
05.02.2015 19:15 -6,1 C 1,5 C 84 % 84 % 1013,1 hPa 0,0 l/m 2,7 km/h (1 Bft) N-NO 22 -8,4 C -7,4 C 2,7 km/h (1 Bft)
05.02.2015 19:20 -6,1 C 1,5 C 84 % 84 % 1013,1 hPa 0,0 l/m 2,1 km/h (1 Bft) N-NO 22 -8,4 C -6,8 C 2,7 km/h (1 Bft)
05.02.2015 19:25 -6,0 C 1,5 C 84 % 84 % 1013,1 hPa 0,0 l/m 2,4 km/h (1 Bft) SO 135 -8,3 C -7,1 C 4,8 km/h (1 Bft)
05.02.2015 19:30 -6,0 C 1,5 C 84 % 84 % 1013,1 hPa 0,0 l/m 2,7 km/h (1 Bft) NO 45 -8,3 C -7,4 C 2,7 km/h (1 Bft)
05.02.2015 19:35 -6,0 C 1,5 C 84 % 84 % 1013,1 hPa 0,0 l/m 3,2 km/h (1 Bft) O-NO 67 -8,3 C -7,9 C 4,8 km/h (1 Bft)
05.02.2015 19:40 -6,0 C 1,5 C 84 % 84 % 1013,1 hPa 0,0 l/m 3,2 km/h (1 Bft) N-NW 337 -8,3 C -7,7 C 3,1 km/h (1 Bft)
05.02.2015 19:45 -6,0 C 1,5 C 85 % 85 % 1013,1 hPa 0,0 l/m 3,1 km/h (1 Bft) NO 45 -8,1 C -7,6 C 2,7 km/h (1 Bft)
05.02.2015 19:50 -6,0 C 1,5 C 85 % 85 % 1013,1 hPa 0,0 l/m 3,1 km/h (1 Bft) O-SO 112 -8,1 C -7,6 C 2,4 km/h (1 Bft)
05.02.2015 19:55 -5,9 C 1,5 C 85 % 85 % 1013,2 hPa 0,0 l/m 2,7 km/h (1 Bft) N-NO 22 -8,0 C -7,3 C 2,6 km/h (1 Bft)
05.02.2015 20:00 -5,9 C 1,5 C 85 % 85 % 1013,2 hPa 0,0 l/m 1,9 km/h (1 Bft) O-NO 67 -8,0 C -6,5 C 2,3 km/h (1 Bft)
05.02.2015 20:05 -5,9 C 1,5 C 85 % 85 % 1013,2 hPa 0,0 l/m 1,6 km/h (1 Bft) N-NO 22 -8,0 C -6,4 C 2,1 km/h (1 Bft)
05.02.2015 20:10 -5,9 C 1,5 C 85 % 85 % 1013,2 hPa 0,0 l/m 1,9 km/h (1 Bft) NO 45 -8,0 C -6,4 C 3,5 km/h (1 Bft)
05.02.2015 20:15 -5,9 C 1,5 C 85 % 85 % 1013,4 hPa 0,0 l/m 1,4 km/h (1 Bft) SO 135 -8,0 C -6,4 C 1,8 km/h (1 Bft)
05.02.2015 20:20 -5,8 C 1,5 C 85 % 85 % 1013,4 hPa 0,0 l/m 1,9 km/h (1 Bft) NO 45 -7,9 C -6,4 C 2,6 km/h (1 Bft)
05.02.2015 20:25 -5,8 C 1,5 C 85 % 85 % 1013,4 hPa 0,0 l/m 2,3 km/h (1 Bft) NO 45 -7,9 C -6,7 C 3,1 km/h (1 Bft)
05.02.2015 20:30 -5,8 C 1,5 C 85 % 85 % 1013,4 hPa 0,0 l/m 1,9 km/h (1 Bft) O 90 -7,9 C -6,4 C 3,2 km/h (1 Bft)
05.02.2015 20:35 -5,8 C 1,5 C 85 % 85 % 1013,5 hPa 0,0 l/m 1,6 km/h (1 Bft) O-NO 67 -7,9 C -6,4 C 4,3 km/h (1 Bft)
05.02.2015 20:40 -5,8 C 1,5 C 85 % 85 % 1013,5 hPa 0,0 l/m 1,9 km/h (1 Bft) O-NO 67 -7,9 C -6,4 C 1,9 km/h (1 Bft)
05.02.2015 20:45 -5,8 C 1,5 C 85 % 85 % 1013,5 hPa 0,0 l/m 1,4 km/h (1 Bft) S-SO 157 -7,9 C -6,4 C 0,0 km/h (0 Bft)
05.02.2015 20:50 -5,8 C 1,5 C 85 % 85 % 1013,5 hPa 0,0 l/m 1,4 km/h (1 Bft) NO 45 -7,9 C -6,4 C 0,0 km/h (0 Bft)
05.02.2015 20:55 -5,8 C 1,5 C 85 % 85 % 1013,6 hPa 0,0 l/m 1,6 km/h (1 Bft) O-NO 67 -7,9 C -6,3 C 4,0 km/h (1 Bft)
05.02.2015 21:00 -5,8 C 1,5 C 85 % 85 % 1013,6 hPa 0,0 l/m 1,9 km/h (1 Bft) NO 45 -7,9 C -6,3 C 3,5 km/h (1 Bft)
05.02.2015 21:05 -5,8 C 1,5 C 85 % 85 % 1013,6 hPa 0,0 l/m 2,4 km/h (1 Bft) O-NO 67 -7,9 C -6,8 C 5,0 km/h (1 Bft)
05.02.2015 21:10 -5,8 C 1,5 C 85 % 85 % 1013,6 hPa 0,0 l/m 2,1 km/h (1 Bft) NO 45 -7,9 C -6,4 C 3,1 km/h (1 Bft)
05.02.2015 21:15 -5,8 C 1,5 C 85 % 85 % 1013,8 hPa 0,0 l/m 1,6 km/h (1 Bft) N-NO 22 -7,9 C -6,3 C 1,8 km/h (1 Bft)
05.02.2015 21:20 -5,8 C 1,5 C 85 % 85 % 1013,8 hPa 0,0 l/m 1,8 km/h (1 Bft) NO 45 -7,9 C -6,3 C 3,2 km/h (1 Bft)
05.02.2015 21:25 -5,8 C 1,5 C 85 % 85 % 1013,8 hPa 0,0 l/m 2,1 km/h (1 Bft) NO 45 -7,9 C -6,4 C 2,3 km/h (1 Bft)
05.02.2015 21:30 -5,8 C 1,5 C 85 % 85 % 1013,8 hPa 0,0 l/m 2,4 km/h (1 Bft) NO 45 -7,9 C -6,8 C 2,3 km/h (1 Bft)
05.02.2015 21:35 -5,7 C 1,5 C 85 % 85 % 1013,7 hPa 0,0 l/m 2,1 km/h (1 Bft) NO 45 -7,8 C -6,4 C 3,5 km/h (1 Bft)
05.02.2015 21:40 -5,7 C 1,5 C 85 % 85 % 1013,7 hPa 0,0 l/m 1,8 km/h (1 Bft) O-NO 67 -7,8 C -6,3 C 3,5 km/h (1 Bft)
05.02.2015 21:45 -5,7 C 1,5 C 85 % 85 % 1013,7 hPa 0,0 l/m 1,6 km/h (1 Bft) N-NO 22 -7,8 C -6,3 C 3,1 km/h (1 Bft)
05.02.2015 21:50 -5,7 C 1,5 C 85 % 85 % 1013,7 hPa 0,0 l/m 1,8 km/h (1 Bft) W-SW 247 -7,8 C -6,3 C 3,1 km/h (1 Bft)
05.02.2015 21:55 -5,7 C 1,5 C 85 % 85 % 1013,7 hPa 0,0 l/m 2,3 km/h (1 Bft) NO 45 -7,8 C -6,6 C 3,1 km/h (1 Bft)
05.02.2015 22:00 -5,7 C 1,5 C 85 % 85 % 1013,7 hPa 0,0 l/m 1,9 km/h (1 Bft) N-NO 22 -7,8 C -6,2 C 2,6 km/h (1 Bft)
05.02.2015 22:05 -5,6 C 1,5 C 85 % 85 % 1013,7 hPa 0,0 l/m 1,9 km/h (1 Bft) NO 45 -7,7 C -6,2 C 4,8 km/h (1 Bft)
05.02.2015 22:10 -5,6 C 1,5 C 85 % 85 % 1013,7 hPa 0,0 l/m 1,6 km/h (1 Bft) NO 45 -7,7 C -6,2 C 0,0 km/h (0 Bft)
05.02.2015 22:15 -5,6 C 1,5 C 85 % 85 % 1013,9 hPa 0,0 l/m 1,6 km/h (1 Bft) O-NO 67 -7,7 C -6,2 C 0,0 km/h (0 Bft)
05.02.2015 22:20 -5,6 C 1,5 C 85 % 85 % 1013,9 hPa 0,0 l/m 1,0 km/h (0 Bft) O-NO 67 -7,7 C -6,2 C 1,8 km/h (1 Bft)
05.02.2015 22:25 -5,6 C 1,5 C 85 % 85 % 1013,9 hPa 0,0 l/m 0,6 km/h (0 Bft) NO 45 -7,7 C -6,2 C 4,2 km/h (1 Bft)
05.02.2015 22:30 -5,6 C 1,5 C 85 % 85 % 1013,9 hPa 0,0 l/m 1,0 km/h (0 Bft) W-SW 247 -7,7 C -6,2 C 0,0 km/h (0 Bft)
05.02.2015 22:35 -5,6 C 1,5 C 85 % 85 % 1013,8 hPa 0,0 l/m 1,3 km/h (1 Bft) O-NO 67 -7,7 C -6,2 C 3,4 km/h (1 Bft)
05.02.2015 22:40 -5,6 C 1,5 C 85 % 85 % 1013,8 hPa 0,0 l/m 1,6 km/h (1 Bft) N-NO 22 -7,7 C -6,2 C 2,3 km/h (1 Bft)
05.02.2015 22:45 -5,6 C 1,5 C 85 % 85 % 1013,8 hPa 0,0 l/m 1,9 km/h (1 Bft) N-NO 22 -7,7 C -6,2 C 3,9 km/h (1 Bft)
05.02.2015 22:50 -5,6 C 1,5 C 85 % 85 % 1013,8 hPa 0,0 l/m 2,1 km/h (1 Bft) N-NO 22 -7,7 C -6,3 C 2,1 km/h (1 Bft)
05.02.2015 22:55 -5,6 C 1,5 C 85 % 85 % 1013,6 hPa 0,0 l/m 2,4 km/h (1 Bft) NO 45 -7,7 C -6,7 C 2,4 km/h (1 Bft)
05.02.2015 23:00 -5,6 C 1,5 C 85 % 85 % 1013,6 hPa 0,0 l/m 2,4 km/h (1 Bft) NO 45 -7,7 C -6,7 C 4,7 km/h (1 Bft)
05.02.2015 23:05 -5,6 C 1,5 C 85 % 85 % 1013,6 hPa 0,0 l/m 2,9 km/h (1 Bft) O-SO 112 -7,7 C -7,1 C 3,7 km/h (1 Bft)
05.02.2015 23:10 -5,6 C 1,5 C 85 % 85 % 1013,6 hPa 0,0 l/m 2,9 km/h (1 Bft) N-NO 22 -7,7 C -7,1 C 2,3 km/h (1 Bft)
05.02.2015 23:15 -5,5 C 1,5 C 85 % 85 % 1013,8 hPa 0,0 l/m 2,3 km/h (1 Bft) N-NW 337 -7,6 C -6,4 C 1,8 km/h (1 Bft)
05.02.2015 23:20 -5,5 C 1,5 C 85 % 85 % 1013,8 hPa 0,0 l/m 1,3 km/h (1 Bft) O-NO 67 -7,6 C -6,1 C 2,3 km/h (1 Bft)
05.02.2015 23:25 -5,5 C 1,5 C 85 % 85 % 1013,8 hPa 0,0 l/m 1,4 km/h (1 Bft) O-NO 67 -7,6 C -6,1 C 1,8 km/h (1 Bft)
05.02.2015 23:30 -5,5 C 1,5 C 85 % 85 % 1013,8 hPa 0,0 l/m 2,4 km/h (1 Bft) NO 45 -7,6 C -6,6 C 6,4 km/h (2 Bft)
05.02.2015 23:35 -5,5 C 1,5 C 85 % 85 % 1014,1 hPa 0,0 l/m 2,3 km/h (1 Bft) O-NO 67 -7,6 C -6,4 C 0,0 km/h (0 Bft)
05.02.2015 23:40 -5,5 C 1,5 C 85 % 85 % 1014,1 hPa 0,0 l/m 2,6 km/h (1 Bft) O-NO 67 -7,6 C -6,7 C 3,7 km/h (1 Bft)
05.02.2015 23:45 -5,4 C 1,5 C 85 % 85 % 1014,1 hPa 0,0 l/m 2,6 km/h (1 Bft) O-NO 67 -7,5 C -6,7 C 5,6 km/h (1 Bft)
05.02.2015 23:50 -5,4 C 1,5 C 85 % 85 % 1014,1 hPa 0,0 l/m 2,7 km/h (1 Bft) S-SO 157 -7,5 C -6,8 C 3,4 km/h (1 Bft)
05.02.2015 23:55 -5,3 C 1,5 C 85 % 85 % 1014,0 hPa 0,0 l/m 3,2 km/h (1 Bft) NO 45 -7,4 C -7,1 C 4,3 km/h (1 Bft)
_ Min-Zeit 12:00 23:55 15:40 15:40 06:40 - 22:25 - - 13:45 12:00 23:35
Minimum _ -6,8 C 1,5 C 79 % 79 % 1010,6 hPa - 0,6 km/h (0 Bft) - - -9,6 C -10,2 C 0,0 km/h (0 Bft)
_ Max-Zeit 23:55 11:25 23:55 23:55 23:50 23:55 13:25 - - 23:55 23:25 13:25
Maximum _ -5,3 C 1,6 C 85 % 85 % 1014,1 hPa 0,0 l/m 6,4 km/h
N-NO (2 Bft)
- - -7,4 C -6,1 C 15,6 km/h
N-NO (3 Bft)
Durchschnitt _ -6,2 C 1,5 C 83 % 83 % 1012,4 hPa #0,0 l/m 3,5 km/h (1 Bft) NO - -8,6 C -8,0 C 4,8 km/h (1 Bft)